This is the latest recevied weather packets stored in our database for station/object KB7STN. If no packets are shown the sender has not sent any weather packets the latest 10 day(s).
| Time | Temp. | Humidity | Pressure | Rain* | Wind** | Luminosity | Snow |
|---|---|---|---|---|---|---|---|
| 1788638413 | 27.78° C | 21% | 1017.9 hPa | 0 mm | - | - | - |
| 1788638113 | 27.78° C | 22% | 1017.9 hPa | 0 mm | - | - | - |
| 1788637813 | 27.78° C | 20% | 1018 hPa | 0 mm | - | - | - |
| 1788637513 | 27.22° C | 21% | 1018.1 hPa | 0 mm | - | - | - |
| 1788637213 | 27.22° C | 23% | 1018.1 hPa | 0 mm | - | - | - |
| 1788636913 | 27.22° C | 22% | 1018 hPa | 0 mm | - | - | - |
| 1788636613 | 27.22° C | 23% | 1018 hPa | 0 mm | - | - | - |
| 1788636313 | 27.22° C | 21% | 1018.1 hPa | 0 mm | - | - | - |
| 1788636013 | 27.22° C | 22% | 1018.2 hPa | 0 mm | - | - | - |
| 1788635713 | 27.78° C | 22% | 1018.3 hPa | 0 mm | - | - | - |
| 1788635413 | 27.22° C | 21% | 1018.3 hPa | 0 mm | - | - | - |
| 1788635141 | 27.78° C | 22% | 1018.5 hPa | 0 mm | - | - | - |
| 1788634813 | 27.22° C | 19% | 1018.5 hPa | 0 mm | - | - | - |
| 1788634513 | 27.22° C | 17% | 1018.8 hPa | 0 mm | - | - | - |
| 1788634213 | 27.22° C | 17% | 1018.5 hPa | 0 mm | - | - | - |
| 1788633913 | 27.22° C | 18% | 1018.9 hPa | 0 mm | - | - | - |
| 1788633613 | 27.22° C | 18% | 1018.9 hPa | 0 mm | - | - | - |
| 1788633313 | 27.22° C | 16% | 1019.1 hPa | 0 mm | - | - | - |
| 1788633013 | 27.22° C | 17% | 1018.9 hPa | 0 mm | - | - | - |
| 1788632713 | 27.22° C | 17% | 1019 hPa | 0 mm | - | - | - |
| 1788632413 | 26.67° C | 17% | 1019 hPa | 0 mm | - | - | - |
| 1788632113 | 26.67° C | 18% | 1019.1 hPa | 0 mm | - | - | - |
| 1788631813 | 26.67° C | 19% | 1019.3 hPa | 0 mm | - | - | - |
| 1788631513 | 26.67° C | 20% | 1019.3 hPa | 0 mm | - | - | - |
| 1788631213 | 26.67° C | 19% | 1019.2 hPa | 0 mm | - | - | - |
* Rain latest hour (hover to see other rain measurements)
** Current wind speed in m/s (hover to see current wind gust speed)